Year,Month,Day,Hour,Minute,Value (Times are PST for temperature in C)
2016,08,19,00,00,22.40
2016,08,19,00,01,22.30
2016,08,19,00,02,22.30
2016,08,19,00,03,22.20
2016,08,19,00,04,22.20
2016,08,19,00,05,22.10
2016,08,19,00,06,22.10
2016,08,19,00,07,22.00
2016,08,19,00,08,22.00
2016,08,19,00,09,21.90
2016,08,19,00,10,21.90
2016,08,19,00,11,21.80
2016,08,19,00,12,21.80
2016,08,19,00,13,21.80
2016,08,19,00,14,21.70
2016,08,19,00,15,21.70
2016,08,19,00,16,21.60
2016,08,19,00,17,21.60
2016,08,19,00,18,21.50
2016,08,19,00,19,21.40
2016,08,19,00,20,21.40
2016,08,19,00,21,21.30
2016,08,19,00,22,21.30
2016,08,19,00,23,21.30
2016,08,19,00,24,21.20
2016,08,19,00,25,21.20
2016,08,19,00,26,21.10
2016,08,19,00,27,21.10
2016,08,19,00,28,21.00
2016,08,19,00,29,21.00
2016,08,19,00,30,20.90
2016,08,19,00,31,20.90
2016,08,19,00,32,20.90
2016,08,19,00,33,20.80
2016,08,19,00,34,20.80
2016,08,19,00,35,20.80
2016,08,19,00,36,20.70
2016,08,19,00,37,20.70
2016,08,19,00,38,20.60
2016,08,19,00,39,20.60
2016,08,19,00,40,20.60
2016,08,19,00,41,20.50
2016,08,19,00,42,20.50
2016,08,19,00,43,20.40
2016,08,19,00,44,20.40
2016,08,19,00,45,20.40
2016,08,19,00,46,20.30
2016,08,19,00,47,20.30
2016,08,19,00,48,20.20
2016,08,19,00,49,20.20
2016,08,19,00,50,20.10
2016,08,19,00,51,20.10
2016,08,19,00,52,20.10
2016,08,19,00,53,20.00
2016,08,19,00,54,20.00
2016,08,19,00,55,19.90
2016,08,19,00,56,19.90
2016,08,19,00,57,19.80
2016,08,19,00,58,19.80
2016,08,19,00,59,19.70
2016,08,19,01,00,19.70
2016,08,19,01,01,19.60
2016,08,19,01,02,19.60
2016,08,19,01,03,19.50
2016,08,19,01,04,19.50
2016,08,19,01,05,19.40
2016,08,19,01,06,19.40
2016,08,19,01,07,19.40
2016,08,19,01,08,19.40
2016,08,19,01,09,19.40
2016,08,19,01,10,19.30
2016,08,19,01,11,19.30
2016,08,19,01,12,19.30
2016,08,19,01,13,19.30
2016,08,19,01,14,19.30
2016,08,19,01,15,19.30
2016,08,19,01,16,19.20
2016,08,19,01,17,19.20
2016,08,19,01,18,19.20
2016,08,19,01,19,19.20
2016,08,19,01,20,19.20
2016,08,19,01,21,19.20
2016,08,19,01,22,19.20
2016,08,19,01,23,19.20
2016,08,19,01,24,19.20
2016,08,19,01,25,19.20
2016,08,19,01,26,19.20
2016,08,19,01,27,19.20
2016,08,19,01,28,19.10
2016,08,19,01,29,19.10
2016,08,19,01,30,19.10
2016,08,19,01,31,19.10
2016,08,19,01,32,19.10
2016,08,19,01,33,19.10
2016,08,19,01,34,19.00
2016,08,19,01,35,19.00
2016,08,19,01,36,19.00
2016,08,19,01,37,19.00
2016,08,19,01,38,19.00
2016,08,19,01,39,19.00
2016,08,19,01,40,19.00
2016,08,19,01,41,19.10
2016,08,19,01,42,19.10
2016,08,19,01,43,19.10
2016,08,19,01,44,19.20
2016,08,19,01,45,19.30
2016,08,19,01,46,19.40
2016,08,19,01,47,19.50
2016,08,19,01,48,19.60
2016,08,19,01,49,19.70
2016,08,19,01,50,19.80
2016,08,19,01,51,19.90
2016,08,19,01,52,20.10
2016,08,19,01,53,20.20
2016,08,19,01,54,20.30
2016,08,19,01,55,20.30
2016,08,19,01,56,20.40
2016,08,19,01,57,20.40
2016,08,19,01,58,20.50
2016,08,19,01,59,20.60
2016,08,19,02,00,20.60
2016,08,19,02,01,20.70
2016,08,19,02,02,20.70
2016,08,19,02,03,20.80
2016,08,19,02,04,20.90
2016,08,19,02,05,20.90
2016,08,19,02,06,21.00
2016,08,19,02,07,21.10
2016,08,19,02,08,21.20
2016,08,19,02,09,21.30
2016,08,19,02,10,21.40
2016,08,19,02,11,21.40
2016,08,19,02,12,21.50
2016,08,19,02,13,21.60
2016,08,19,02,14,21.60
2016,08,19,02,15,21.60
2016,08,19,02,16,21.70
2016,08,19,02,17,21.70
2016,08,19,02,18,21.80
2016,08,19,02,19,21.80
2016,08,19,02,20,21.80
2016,08,19,02,21,21.90
2016,08,19,02,22,21.90
2016,08,19,02,23,21.90
2016,08,19,02,24,21.90
2016,08,19,02,25,22.00
2016,08,19,02,26,22.00
2016,08,19,02,27,22.00
2016,08,19,02,28,21.90
2016,08,19,02,29,21.90
2016,08,19,02,30,21.90
2016,08,19,02,31,21.80
2016,08,19,02,32,21.80
2016,08,19,02,33,21.80
2016,08,19,02,34,21.80
2016,08,19,02,35,21.80
2016,08,19,02,36,21.80
2016,08,19,02,37,21.70
2016,08,19,02,38,21.70
2016,08,19,02,39,21.70
2016,08,19,02,40,21.70
2016,08,19,02,41,21.70
2016,08,19,02,42,21.70
2016,08,19,02,43,21.60
2016,08,19,02,44,21.60
2016,08,19,02,45,21.60
2016,08,19,02,46,21.50
2016,08,19,02,47,21.50
2016,08,19,02,48,21.50
2016,08,19,02,49,21.50
2016,08,19,02,50,21.50
2016,08,19,02,51,21.50
2016,08,19,02,52,21.60
2016,08,19,02,53,21.60
2016,08,19,02,54,21.60
2016,08,19,02,55,21.60
2016,08,19,02,56,21.60
2016,08,19,02,57,21.60
2016,08,19,02,58,21.60
2016,08,19,02,59,21.60
2016,08,19,03,00,21.60
2016,08,19,03,01,21.60
2016,08,19,03,02,21.50
2016,08,19,03,03,21.50
2016,08,19,03,04,21.50
2016,08,19,03,05,21.50
2016,08,19,03,06,21.50
2016,08,19,03,07,21.50
2016,08,19,03,08,21.50
2016,08,19,03,09,21.50
2016,08,19,03,10,21.50
2016,08,19,03,11,21.50
2016,08,19,03,12,21.50
2016,08,19,03,13,21.50
2016,08,19,03,14,21.50
2016,08,19,03,15,21.50
2016,08,19,03,16,21.50
2016,08,19,03,17,21.50
2016,08,19,03,18,21.50
2016,08,19,03,19,21.50
2016,08,19,03,20,21.40
2016,08,19,03,21,21.40
2016,08,19,03,22,21.40
2016,08,19,03,23,21.40
2016,08,19,03,24,21.30
2016,08,19,03,25,21.30
2016,08,19,03,26,21.30
2016,08,19,03,27,21.20
2016,08,19,03,28,21.20
2016,08,19,03,29,21.10
2016,08,19,03,30,21.10
2016,08,19,03,31,21.00
2016,08,19,03,32,21.00
2016,08,19,03,33,21.00
2016,08,19,03,34,20.90
2016,08,19,03,35,20.90
2016,08,19,03,36,20.90
2016,08,19,03,37,20.90
2016,08,19,03,38,20.90
2016,08,19,03,39,20.90
2016,08,19,03,40,21.00
2016,08,19,03,41,21.00
2016,08,19,03,42,21.00
2016,08,19,03,43,21.00
2016,08,19,03,44,21.00
2016,08,19,03,45,21.10
2016,08,19,03,46,21.10
2016,08,19,03,47,21.10
2016,08,19,03,48,21.10
2016,08,19,03,49,21.10
2016,08,19,03,50,21.10
2016,08,19,03,51,21.00
2016,08,19,03,52,21.00
2016,08,19,03,53,21.00
2016,08,19,03,54,21.00
2016,08,19,03,55,20.90
2016,08,19,03,56,20.90
2016,08,19,03,57,20.90
2016,08,19,03,58,20.80
2016,08,19,03,59,20.80
2016,08,19,04,00,20.80
2016,08,19,04,01,20.70
2016,08,19,04,02,20.70
2016,08,19,04,03,20.60
2016,08,19,04,04,20.50
2016,08,19,04,05,20.40
2016,08,19,04,06,20.40
2016,08,19,04,07,20.30
2016,08,19,04,08,20.20
2016,08,19,04,09,20.10
2016,08,19,04,10,20.10
2016,08,19,04,11,20.00
2016,08,19,04,12,19.90
2016,08,19,04,13,19.80
2016,08,19,04,14,19.70
2016,08,19,04,15,19.60
2016,08,19,04,16,19.60
2016,08,19,04,17,19.50
2016,08,19,04,18,19.40
2016,08,19,04,19,19.30
2016,08,19,04,20,19.30
2016,08,19,04,21,19.20
2016,08,19,04,22,19.10
2016,08,19,04,23,19.10
2016,08,19,04,24,19.00
2016,08,19,04,25,18.90
2016,08,19,04,26,18.80
2016,08,19,04,27,18.80
2016,08,19,04,28,18.70
2016,08,19,04,29,18.70
2016,08,19,04,30,18.60
2016,08,19,04,31,18.60
2016,08,19,04,32,18.50
2016,08,19,04,33,18.40
2016,08,19,04,34,18.40
2016,08,19,04,35,18.30
2016,08,19,04,36,18.30
2016,08,19,04,37,18.30
2016,08,19,04,38,18.20
2016,08,19,04,39,18.20
2016,08,19,04,40,18.10
2016,08,19,04,41,18.10
2016,08,19,04,42,18.00
2016,08,19,04,43,18.00
2016,08,19,04,44,17.90
2016,08,19,04,45,17.90
2016,08,19,04,46,17.80
2016,08,19,04,47,17.80
2016,08,19,04,48,17.80
2016,08,19,04,49,17.80
2016,08,19,04,50,17.70
2016,08,19,04,51,17.70
2016,08,19,04,52,17.70
2016,08,19,04,53,17.60
2016,08,19,04,54,17.60
2016,08,19,04,55,17.60
2016,08,19,04,56,17.50
2016,08,19,04,57,17.50
2016,08,19,04,58,17.50
2016,08,19,04,59,17.40
2016,08,19,05,00,17.40
2016,08,19,05,01,17.30
2016,08,19,05,02,17.30
2016,08,19,05,03,17.30
2016,08,19,05,04,17.20
2016,08,19,05,05,17.20
2016,08,19,05,06,17.10
2016,08,19,05,07,17.10
2016,08,19,05,08,17.10
2016,08,19,05,09,17.00
2016,08,19,05,10,17.00
2016,08,19,05,11,16.90
2016,08,19,05,12,16.90
2016,08,19,05,13,16.80
2016,08,19,05,14,16.80
2016,08,19,05,15,16.70
2016,08,19,05,16,16.70
2016,08,19,05,17,16.70
2016,08,19,05,18,16.70
2016,08,19,05,19,16.60
2016,08,19,05,20,16.60
2016,08,19,05,21,16.60
2016,08,19,05,22,16.60
2016,08,19,05,23,16.50
2016,08,19,05,24,16.50
2016,08,19,05,25,16.50
2016,08,19,05,26,16.50
2016,08,19,05,27,16.50
2016,08,19,05,28,16.50
2016,08,19,05,29,16.50
2016,08,19,05,30,16.40
2016,08,19,05,31,16.40
2016,08,19,05,32,16.40
2016,08,19,05,33,16.40
2016,08,19,05,34,16.40
2016,08,19,05,35,16.40
2016,08,19,05,36,16.40
2016,08,19,05,37,16.40
2016,08,19,05,38,16.40
2016,08,19,05,39,16.40
2016,08,19,05,40,16.30
2016,08,19,05,41,16.30
2016,08,19,05,42,16.30
2016,08,19,05,43,16.30
2016,08,19,05,44,16.30
2016,08,19,05,45,16.30
2016,08,19,05,46,16.30
2016,08,19,05,47,16.30
2016,08,19,05,48,16.30
2016,08,19,05,49,16.20
2016,08,19,05,50,16.20
2016,08,19,05,51,16.20
2016,08,19,05,52,16.20
2016,08,19,05,53,16.20
2016,08,19,05,54,16.10
2016,08,19,05,55,16.10
2016,08,19,05,56,16.10
2016,08,19,05,57,16.00
2016,08,19,05,58,16.00
2016,08,19,05,59,16.00
2016,08,19,06,00,15.90
2016,08,19,06,01,15.90
2016,08,19,06,02,15.90
2016,08,19,06,03,15.90
2016,08,19,06,04,15.80
2016,08,19,06,05,15.80
2016,08,19,06,06,15.80
2016,08,19,06,07,15.80
2016,08,19,06,08,15.80
2016,08,19,06,09,15.80
2016,08,19,06,10,15.70
2016,08,19,06,11,15.70
2016,08,19,06,12,15.70
2016,08,19,06,13,15.70
2016,08,19,06,14,15.70
2016,08,19,06,15,15.70
2016,08,19,06,16,15.60
2016,08,19,06,17,15.60
2016,08,19,06,18,15.60
2016,08,19,06,19,15.60
2016,08,19,06,20,15.60
2016,08,19,06,21,15.50
2016,08,19,06,22,15.50
2016,08,19,06,23,15.50
2016,08,19,06,24,15.50
2016,08,19,06,25,15.40
2016,08,19,06,26,15.40
2016,08,19,06,27,15.40
2016,08,19,06,28,15.40
2016,08,19,06,29,15.40
2016,08,19,06,30,15.40
2016,08,19,06,31,15.40
2016,08,19,06,32,15.30
2016,08,19,06,33,15.30
2016,08,19,06,34,15.30
2016,08,19,06,35,15.30
2016,08,19,06,36,15.30
2016,08,19,06,37,15.30
2016,08,19,06,38,15.30
2016,08,19,06,39,15.30
2016,08,19,06,40,15.30
2016,08,19,06,41,15.20
2016,08,19,06,42,15.20
2016,08,19,06,43,15.20
2016,08,19,06,44,15.20
2016,08,19,06,45,15.20
2016,08,19,06,46,15.20
2016,08,19,06,47,15.20
2016,08,19,06,48,15.20
2016,08,19,06,49,15.20
2016,08,19,06,50,15.20
2016,08,19,06,51,15.20
2016,08,19,06,52,15.20
2016,08,19,06,53,15.20
2016,08,19,06,54,15.20
2016,08,19,06,55,15.20
2016,08,19,06,56,15.20
2016,08,19,06,57,15.20
2016,08,19,06,58,15.20
2016,08,19,06,59,15.20
2016,08,19,07,00,15.10
2016,08,19,07,01,15.10
2016,08,19,07,02,15.20
2016,08,19,07,03,15.20
2016,08,19,07,04,15.20
2016,08,19,07,05,15.20
2016,08,19,07,06,15.20
2016,08,19,07,07,15.20
2016,08,19,07,08,15.20
2016,08,19,07,09,15.20
2016,08,19,07,10,15.30
2016,08,19,07,11,15.30
2016,08,19,07,12,15.30
2016,08,19,07,13,15.30
2016,08,19,07,14,15.30
2016,08,19,07,15,15.30
2016,08,19,07,16,15.30
2016,08,19,07,17,15.30
2016,08,19,07,18,15.30
2016,08,19,07,19,15.30
2016,08,19,07,20,15.30
2016,08,19,07,21,15.30
2016,08,19,07,22,15.40
2016,08,19,07,23,15.40
2016,08,19,07,24,15.40
2016,08,19,07,25,15.40
2016,08,19,07,26,15.40
2016,08,19,07,27,15.40
2016,08,19,07,28,15.40
2016,08,19,07,29,15.50
2016,08,19,07,30,15.50
2016,08,19,07,31,15.50
2016,08,19,07,32,15.50
2016,08,19,07,33,15.60
2016,08,19,07,34,15.60
2016,08,19,07,35,15.60
2016,08,19,07,36,15.60
2016,08,19,07,37,15.70
2016,08,19,07,38,15.70
2016,08,19,07,39,15.70
2016,08,19,07,40,15.70
2016,08,19,07,41,15.80
2016,08,19,07,42,15.80
2016,08,19,07,43,15.90
2016,08,19,07,44,16.10
2016,08,19,07,45,16.40
2016,08,19,07,46,16.60
2016,08,19,07,47,16.90
2016,08,19,07,48,17.20
2016,08,19,07,49,17.40
2016,08,19,07,50,17.60
2016,08,19,07,51,17.70
2016,08,19,07,52,17.70
2016,08,19,07,53,17.80
2016,08,19,07,54,17.90
2016,08,19,07,55,18.00
2016,08,19,07,56,18.00
2016,08,19,07,57,18.10
2016,08,19,07,58,18.10
2016,08,19,07,59,18.20
2016,08,19,08,00,18.30
2016,08,19,08,01,18.40
2016,08,19,08,02,18.50
2016,08,19,08,03,18.50
2016,08,19,08,04,18.60
2016,08,19,08,05,18.70
2016,08,19,08,06,18.80
2016,08,19,08,07,18.90
2016,08,19,08,08,19.10
2016,08,19,08,09,19.20
2016,08,19,08,10,19.30
2016,08,19,08,11,19.50
2016,08,19,08,12,19.60
2016,08,19,08,13,19.70
2016,08,19,08,14,19.70
2016,08,19,08,15,19.80
2016,08,19,08,16,19.90
2016,08,19,08,17,20.00
2016,08,19,08,18,20.20
2016,08,19,08,19,20.30
2016,08,19,08,20,20.40
2016,08,19,08,21,20.50
2016,08,19,08,22,20.60
2016,08,19,08,23,20.70
2016,08,19,08,24,20.80
2016,08,19,08,25,20.90
2016,08,19,08,26,21.00
2016,08,19,08,27,21.10
2016,08,19,08,28,21.10
2016,08,19,08,29,21.20
2016,08,19,08,30,21.30
2016,08,19,08,31,21.30
2016,08,19,08,32,21.30
2016,08,19,08,33,21.40
2016,08,19,08,34,21.40
2016,08,19,08,35,21.40
2016,08,19,08,36,21.40
2016,08,19,08,37,21.50
2016,08,19,08,38,21.50
2016,08,19,08,39,21.50
2016,08,19,08,40,21.60
2016,08,19,08,41,21.60
2016,08,19,08,42,21.60
2016,08,19,08,43,21.70
2016,08,19,08,44,21.70
2016,08,19,08,45,21.70
2016,08,19,08,46,21.80
2016,08,19,08,47,21.80
2016,08,19,08,48,21.80
2016,08,19,08,49,21.90
2016,08,19,08,50,21.90
2016,08,19,08,51,22.00
2016,08,19,08,52,22.00
2016,08,19,08,53,22.10
2016,08,19,08,54,22.10
2016,08,19,08,55,22.20
2016,08,19,08,56,22.30
2016,08,19,08,57,22.40
2016,08,19,08,58,22.50
2016,08,19,08,59,22.50
2016,08,19,09,00,22.60
2016,08,19,09,01,22.70
2016,08,19,09,02,22.80
2016,08,19,09,03,22.90
2016,08,19,09,04,22.90
2016,08,19,09,05,23.00
2016,08,19,09,06,23.00
2016,08,19,09,07,23.10
2016,08,19,09,08,23.10
2016,08,19,09,09,23.20
2016,08,19,09,10,23.20
2016,08,19,09,11,23.20
2016,08,19,09,12,23.20
2016,08,19,09,13,23.20
2016,08,19,09,14,23.20
2016,08,19,09,15,23.30
2016,08,19,09,16,23.30
2016,08,19,09,17,23.30
2016,08,19,09,18,23.30
2016,08,19,09,19,23.30
2016,08,19,09,20,23.30
2016,08,19,09,21,23.30
2016,08,19,09,22,23.30
2016,08,19,09,23,23.30
2016,08,19,09,24,23.30
2016,08,19,09,25,23.30
2016,08,19,09,26,23.30
2016,08,19,09,27,23.30
2016,08,19,09,28,23.30
2016,08,19,09,29,23.30
2016,08,19,09,30,23.30
2016,08,19,09,31,23.30
2016,08,19,09,32,23.30
2016,08,19,09,33,23.40
2016,08,19,09,34,23.40
2016,08,19,09,35,23.40
2016,08,19,09,36,23.40
2016,08,19,09,37,23.50
2016,08,19,09,38,23.50
2016,08,19,09,39,23.60
2016,08,19,09,40,23.60
2016,08,19,09,41,23.60
2016,08,19,09,42,23.60
2016,08,19,09,43,23.60
2016,08,19,09,44,23.60
2016,08,19,09,45,23.60
2016,08,19,09,46,23.70
2016,08,19,09,47,23.70
2016,08,19,09,48,23.70
2016,08,19,09,49,23.70
2016,08,19,09,50,23.80
2016,08,19,09,51,23.80
2016,08,19,09,52,23.80
2016,08,19,09,53,23.80
2016,08,19,09,54,23.80
2016,08,19,09,55,23.80
2016,08,19,09,56,23.80
2016,08,19,09,57,23.80
2016,08,19,09,58,23.80
2016,08,19,09,59,23.80
2016,08,19,10,00,23.70
2016,08,19,10,01,23.70
2016,08,19,10,02,23.70
2016,08,19,10,03,23.70
2016,08,19,10,04,23.70
2016,08,19,10,05,23.60
2016,08,19,10,06,23.60
2016,08,19,10,07,23.50
2016,08,19,10,08,23.50
2016,08,19,10,09,23.40
2016,08,19,10,10,23.40
2016,08,19,10,11,23.30
2016,08,19,10,12,23.30
2016,08,19,10,13,23.30
2016,08,19,10,14,23.20
2016,08,19,10,15,23.20
2016,08,19,10,16,23.20
2016,08,19,10,17,23.20
2016,08,19,10,18,23.20
2016,08,19,10,19,23.20
2016,08,19,10,20,23.20
2016,08,19,10,21,23.20
2016,08,19,10,22,23.20
2016,08,19,10,23,23.20
2016,08,19,10,24,23.30
2016,08,19,10,25,23.30
2016,08,19,10,26,23.40
2016,08,19,10,27,23.40
2016,08,19,10,28,23.40
2016,08,19,10,29,23.50
2016,08,19,10,30,23.50
2016,08,19,10,31,23.60
2016,08,19,10,32,23.50
2016,08,19,10,33,23.50
2016,08,19,10,34,23.50
2016,08,19,10,35,23.40
2016,08,19,10,36,23.40
2016,08,19,10,37,23.40
2016,08,19,10,38,23.40
2016,08,19,10,39,23.40
2016,08,19,10,40,23.40
2016,08,19,10,41,23.40
2016,08,19,10,42,23.40
2016,08,19,10,43,23.40
2016,08,19,10,44,23.40
2016,08,19,10,45,23.40
2016,08,19,10,46,23.40
2016,08,19,10,47,23.50
2016,08,19,10,48,23.50
2016,08,19,10,49,23.50
2016,08,19,10,50,23.40
2016,08,19,10,51,23.40
2016,08,19,10,52,23.40
2016,08,19,10,53,23.30
2016,08,19,10,54,23.40
2016,08,19,10,55,23.40
2016,08,19,10,56,23.40
2016,08,19,10,57,23.50
2016,08,19,10,58,23.60
2016,08,19,10,59,23.60
2016,08,19,11,00,23.70
2016,08,19,11,01,23.80
2016,08,19,11,02,23.80
2016,08,19,11,03,23.90
2016,08,19,11,04,23.90
2016,08,19,11,05,23.90
2016,08,19,11,06,24.00
2016,08,19,11,07,24.00
2016,08,19,11,08,24.10
2016,08,19,11,09,24.10
2016,08,19,11,10,24.10
2016,08,19,11,11,24.10
2016,08,19,11,12,24.10
2016,08,19,11,13,24.20
2016,08,19,11,14,24.20
2016,08,19,11,15,24.20
2016,08,19,11,16,24.30
2016,08,19,11,17,24.30
2016,08,19,11,18,24.30
2016,08,19,11,19,24.30
2016,08,19,11,20,24.30
2016,08,19,11,21,24.30
2016,08,19,11,22,24.40
2016,08,19,11,23,24.40
2016,08,19,11,24,24.40
2016,08,19,11,25,24.40
2016,08,19,11,26,24.40
2016,08,19,11,27,24.50
2016,08,19,11,28,24.40
2016,08,19,11,29,24.40
2016,08,19,11,30,24.50
2016,08,19,11,31,24.60
2016,08,19,11,32,24.60
2016,08,19,11,33,24.60
2016,08,19,11,34,24.70
2016,08,19,11,35,24.80
2016,08,19,11,36,24.80
2016,08,19,11,37,24.90
2016,08,19,11,38,24.90
2016,08,19,11,39,24.90
2016,08,19,11,40,24.90
2016,08,19,11,41,25.00
2016,08,19,11,42,25.00
2016,08,19,11,43,25.10
2016,08,19,11,44,25.10
2016,08,19,11,45,25.10
2016,08,19,11,46,25.10
2016,08,19,11,47,25.10
2016,08,19,11,48,25.10
2016,08,19,11,49,25.10
2016,08,19,11,50,25.20
2016,08,19,11,51,25.20
2016,08,19,11,52,25.20
2016,08,19,11,53,25.20
2016,08,19,11,54,25.20
2016,08,19,11,55,25.20
2016,08,19,11,56,25.20
2016,08,19,11,57,25.10
2016,08,19,11,58,25.00
2016,08,19,11,59,25.00
2016,08,19,12,00,24.90
2016,08,19,12,01,24.90
2016,08,19,12,02,24.90
2016,08,19,12,03,24.90
2016,08,19,12,04,24.90
2016,08,19,12,05,24.90
2016,08,19,12,06,24.90
2016,08,19,12,07,24.90
2016,08,19,12,08,24.90
2016,08,19,12,09,24.90
2016,08,19,12,10,24.90
2016,08,19,12,11,25.00
2016,08,19,12,12,24.90
2016,08,19,12,13,24.90
2016,08,19,12,14,24.90
2016,08,19,12,15,24.90
2016,08,19,12,16,24.90
2016,08,19,12,17,24.80
2016,08,19,12,18,24.80
2016,08,19,12,19,24.80
2016,08,19,12,20,24.80
2016,08,19,12,21,24.80
2016,08,19,12,22,24.80
2016,08,19,12,23,24.80
2016,08,19,12,24,24.80
2016,08,19,12,25,24.80
2016,08,19,12,26,24.80
2016,08,19,12,27,24.90
2016,08,19,12,28,24.90
2016,08,19,12,29,24.90
2016,08,19,12,30,24.90
2016,08,19,12,31,24.80
2016,08,19,12,32,24.80
2016,08,19,12,33,24.80
2016,08,19,12,34,24.90
2016,08,19,12,35,24.90
2016,08,19,12,36,24.90
2016,08,19,12,37,25.00
2016,08,19,12,38,25.10
2016,08,19,12,39,25.10
2016,08,19,12,40,25.20
2016,08,19,12,41,25.20
2016,08,19,12,42,25.20
2016,08,19,12,43,25.20
2016,08,19,12,44,25.30
2016,08,19,12,45,25.30
2016,08,19,12,46,25.40
2016,08,19,12,47,25.50
2016,08,19,12,48,25.50
2016,08,19,12,49,25.50
2016,08,19,12,50,25.50
2016,08,19,12,51,25.60
2016,08,19,12,52,25.60
2016,08,19,12,53,25.60
2016,08,19,12,54,25.50
2016,08,19,12,55,25.50
2016,08,19,12,56,25.50
2016,08,19,12,57,25.50
2016,08,19,12,58,25.50
2016,08,19,12,59,25.60
2016,08,19,13,00,25.60
2016,08,19,13,01,25.70
2016,08,19,13,02,25.80
2016,08,19,13,03,25.90
2016,08,19,13,04,25.90
2016,08,19,13,05,25.90
2016,08,19,13,06,26.00
2016,08,19,13,07,26.10
2016,08,19,13,08,26.10
2016,08,19,13,09,26.10
2016,08,19,13,10,26.10
2016,08,19,13,11,26.10
2016,08,19,13,12,26.10
2016,08,19,13,13,26.10
2016,08,19,13,14,26.10
2016,08,19,13,15,26.10
2016,08,19,13,16,26.10
2016,08,19,13,17,26.20
2016,08,19,13,18,26.20
2016,08,19,13,19,26.30
2016,08,19,13,20,26.40
2016,08,19,13,21,26.50
2016,08,19,13,22,26.60
2016,08,19,13,23,26.60
2016,08,19,13,24,26.60
2016,08,19,13,25,26.70
2016,08,19,13,26,26.70
2016,08,19,13,27,26.80
2016,08,19,13,28,26.90
2016,08,19,13,29,27.00
2016,08,19,13,30,27.00
2016,08,19,13,31,27.00
2016,08,19,13,32,27.00
2016,08,19,13,33,27.10
2016,08,19,13,34,27.10
2016,08,19,13,35,27.10
2016,08,19,13,36,27.20
2016,08,19,13,37,27.20
2016,08,19,13,38,27.20
2016,08,19,13,39,27.20
2016,08,19,13,40,27.30
2016,08,19,13,41,27.30
2016,08,19,13,42,27.40
2016,08,19,13,43,27.40
2016,08,19,13,44,27.50
2016,08,19,13,45,27.60
2016,08,19,13,46,27.70
2016,08,19,13,47,27.80
2016,08,19,13,48,27.90
2016,08,19,13,49,28.00
2016,08,19,13,50,28.00
2016,08,19,13,51,28.10
2016,08,19,13,52,28.10
2016,08,19,13,53,28.10
2016,08,19,13,54,28.20
2016,08,19,13,55,28.30
2016,08,19,13,56,28.40
2016,08,19,13,57,28.50
2016,08,19,13,58,28.60
2016,08,19,13,59,28.60
2016,08,19,14,00,28.70
2016,08,19,14,01,28.70
2016,08,19,14,02,28.80
2016,08,19,14,03,28.80
2016,08,19,14,04,28.80
2016,08,19,14,05,28.70
2016,08,19,14,06,28.60
2016,08,19,14,07,28.60
2016,08,19,14,08,28.60
2016,08,19,14,09,28.70
2016,08,19,14,10,28.70
2016,08,19,14,11,28.70
2016,08,19,14,12,28.80
2016,08,19,14,13,28.80
2016,08,19,14,14,28.80
2016,08,19,14,15,28.80
2016,08,19,14,16,28.80
2016,08,19,14,17,28.90
2016,08,19,14,18,29.00
2016,08,19,14,19,29.00
2016,08,19,14,20,29.10
2016,08,19,14,21,29.10
2016,08,19,14,22,29.00
2016,08,19,14,23,29.00
2016,08,19,14,24,28.90
2016,08,19,14,25,28.90
2016,08,19,14,26,28.90
2016,08,19,14,27,28.90
2016,08,19,14,28,28.90
2016,08,19,14,29,28.90
2016,08,19,14,30,28.90
2016,08,19,14,31,28.90
2016,08,19,14,32,28.80
2016,08,19,14,33,28.80
2016,08,19,14,34,28.90
2016,08,19,14,35,29.00
2016,08,19,14,36,29.20
2016,08,19,14,37,29.30
2016,08,19,14,38,29.40
2016,08,19,14,39,29.40
2016,08,19,14,40,29.40
2016,08,19,14,41,29.40
2016,08,19,14,42,29.40
2016,08,19,14,43,29.50
2016,08,19,14,44,29.50
2016,08,19,14,45,29.50
2016,08,19,14,46,29.50
2016,08,19,14,47,29.50
2016,08,19,14,48,29.50
2016,08,19,14,49,29.50
2016,08,19,14,50,29.60
2016,08,19,14,51,29.60
2016,08,19,14,52,29.60
2016,08,19,14,53,29.60
2016,08,19,14,54,29.60
2016,08,19,14,55,29.60
2016,08,19,14,56,29.60
2016,08,19,14,57,29.50
2016,08,19,14,58,29.50
2016,08,19,14,59,29.50
2016,08,19,15,00,29.60
2016,08,19,15,01,29.60
2016,08,19,15,02,29.60
2016,08,19,15,03,29.60
2016,08,19,15,04,29.60
2016,08,19,15,05,29.60
2016,08,19,15,06,29.50
2016,08,19,15,07,29.60
2016,08,19,15,08,29.60
2016,08,19,15,09,29.60
2016,08,19,15,10,29.70
2016,08,19,15,11,29.90
2016,08,19,15,12,29.90
2016,08,19,15,13,29.90
2016,08,19,15,14,30.00
2016,08,19,15,15,30.00
2016,08,19,15,16,30.10
2016,08,19,15,17,30.10
2016,08,19,15,18,30.10
2016,08,19,15,19,30.10
2016,08,19,15,20,30.10
2016,08,19,15,21,30.10
2016,08,19,15,22,30.10
2016,08,19,15,23,30.10
2016,08,19,15,24,30.10
2016,08,19,15,25,30.10
2016,08,19,15,26,30.10
2016,08,19,15,27,30.20
2016,08,19,15,28,30.20
2016,08,19,15,29,30.20
2016,08,19,15,30,30.20
2016,08,19,15,31,30.30
2016,08,19,15,32,30.30
2016,08,19,15,33,30.40
2016,08,19,15,34,30.50
2016,08,19,15,35,30.50
2016,08,19,15,36,30.40
2016,08,19,15,37,30.30
2016,08,19,15,38,30.30
2016,08,19,15,39,30.30
2016,08,19,15,40,30.30
2016,08,19,15,41,30.20
2016,08,19,15,42,30.30
2016,08,19,15,43,30.30
2016,08,19,15,44,30.30
2016,08,19,15,45,30.40
2016,08,19,15,46,30.50
2016,08,19,15,47,30.60
2016,08,19,15,48,30.60
2016,08,19,15,49,30.70
2016,08,19,15,50,30.80
2016,08,19,15,51,30.90
2016,08,19,15,52,31.00
2016,08,19,15,53,31.00
2016,08,19,15,54,31.00
2016,08,19,15,55,31.00
2016,08,19,15,56,31.10
2016,08,19,15,57,31.10
2016,08,19,15,58,31.10
2016,08,19,15,59,31.20
2016,08,19,16,00,31.20
2016,08,19,16,01,31.10
2016,08,19,16,02,31.10
2016,08,19,16,03,31.00
2016,08,19,16,04,31.00
2016,08,19,16,05,30.90
2016,08,19,16,06,30.90
2016,08,19,16,07,30.90
2016,08,19,16,08,30.90
2016,08,19,16,09,30.80
2016,08,19,16,10,30.70
2016,08,19,16,11,30.60
2016,08,19,16,12,30.60
2016,08,19,16,13,30.60
2016,08,19,16,14,30.60
2016,08,19,16,15,30.70
2016,08,19,16,16,30.70
2016,08,19,16,17,30.80
2016,08,19,16,18,30.80
2016,08,19,16,19,30.80
2016,08,19,16,20,30.80
2016,08,19,16,21,30.70
2016,08,19,16,22,30.70
2016,08,19,16,23,30.80
2016,08,19,16,24,30.80
2016,08,19,16,25,30.90
2016,08,19,16,26,30.90
2016,08,19,16,27,30.90
2016,08,19,16,28,30.90
2016,08,19,16,29,30.90
2016,08,19,16,30,30.80
2016,08,19,16,31,30.80
2016,08,19,16,32,30.90
2016,08,19,16,33,30.90
2016,08,19,16,34,30.80
2016,08,19,16,35,30.80
2016,08,19,16,36,30.80
2016,08,19,16,37,30.80
2016,08,19,16,38,30.80
2016,08,19,16,39,30.80
2016,08,19,16,40,30.80
2016,08,19,16,41,30.80
2016,08,19,16,42,30.80
2016,08,19,16,43,30.80
2016,08,19,16,44,30.80
2016,08,19,16,45,30.80
2016,08,19,16,46,30.80
2016,08,19,16,47,30.80
2016,08,19,16,48,30.80
2016,08,19,16,49,30.70
2016,08,19,16,50,30.70
2016,08,19,16,51,30.60
2016,08,19,16,52,30.50
2016,08,19,16,53,30.40
2016,08,19,16,54,30.40
2016,08,19,16,55,30.40
2016,08,19,16,56,30.40
2016,08,19,16,57,30.40
2016,08,19,16,58,30.40
2016,08,19,16,59,30.40
2016,08,19,17,00,30.40
2016,08,19,17,01,30.40
2016,08,19,17,02,30.40
2016,08,19,17,03,30.40
2016,08,19,17,04,30.40
2016,08,19,17,05,30.40
2016,08,19,17,06,30.40
2016,08,19,17,07,30.30
2016,08,19,17,08,30.30
2016,08,19,17,09,30.30
2016,08,19,17,10,30.20
2016,08,19,17,11,30.20
2016,08,19,17,12,30.20
2016,08,19,17,13,30.20
2016,08,19,17,14,30.20
2016,08,19,17,15,30.10
2016,08,19,17,16,30.10
2016,08,19,17,17,30.10
2016,08,19,17,18,30.10
2016,08,19,17,19,30.10